Elkins, WV

2:34 AM EDT on April 25, 2017 (GMT -0400)
Elkins-Randolph County

Weather History for KEKN - September, 2014

Change the Weather History Date:

Monday, September 8, 2014

  Actual Average Record
Temperature  
Mean Temperature 62 °F 65 °F  
Max Temperature 73 °F 76 °F 91 °F (1939)
Min Temperature 50 °F 54 °F 36 °F (1932)
Degree Days  
Heating Degree Days 3 2  
Month to date heating degree days 6 14  
Since 1 July heating degree days 57 44  
Cooling Degree Days 0 2  
Month to date cooling degree days 55 21  
Year to date cooling degree days 493 447  
Growing Degree Days 12 (Base 50)    
Moisture  
Dew Point 53 °F    
Average Humidity 77    
Maximum Humidity 96    
Minimum Humidity 57    
Precipitation  
Precipitation 0.00 in 0.12 in 1.23 in (1981)
Month to date precipitation 0.76 0.98  
Year to date precipitation 28.99 33.79  
Snow  
Snow 0.00 in - - ()
Month to date snowfall 0.0  
Since 1 September snowfall 0.0  
Snow Depth 0.00 in    
Sea Level Pressure  
Sea Level Pressure 30.21 in    
Wind  
Wind Speed 6 mph (SSE)    
Max Wind Speed 16 mph    
Max Gust Speed 24 mph    
Visibility 10 miles    
Events      
T = Trace of Precipitation, MM = Missing Value Source: NWS Daily Summary

Daily Weather History Graph

Daily Weather History Graph

Search for Another Location

Airport or City:

Trip Planner

Search our weather history database for the weather conditions in past years. The results will help you decide how hot, cold, wet, or windy it might be!

Date:

Astronomy

Sep. 08, 2014 Rise Set
Actual Time 6:54 AM EDT 7:38 PM EDT
Civil Twilight 6:27 AM EDT 8:05 PM EDT
Nautical Twilight 5:55 AM EDT 8:37 PM EDT
Astronomical Twilight 5:22 AM EDT 9:10 PM EDT
Moon 7:18 PM EDT (9/8) 6:17 AM EDT (9/8)
Length of Visible Light 13h 38m
Length of Day
12h 44m
Full, 100% of the Moon is Illuminated
Sep 8
Full
Sep 8
Full
Sep 15
Last Quarter
Sep 24
New
Oct 1
First Quarter

Hourly Weather History & Observations

Time (EDT) Temp. Dew Point Humidity Pressure Visibility Wind Dir Wind Speed Gust Speed Precip Events Conditions
12:03 AM 52.0 °F 50.0 °F 93% 30.22 in 9.0 mi Calm Calm - N/A   Clear
12:51 AM 51.1 °F 48.9 °F 92% 30.21 in 10.0 mi Calm Calm - N/A   Clear
1:31 AM 51.1 °F 48.9 °F 92% 30.21 in 7.0 mi Calm Calm - N/A   Scattered Clouds
1:51 AM 50.0 °F 48.0 °F 93% 30.21 in 6.0 mi Calm Calm - N/A   Scattered Clouds
2:51 AM 51.1 °F 48.9 °F 92% 30.21 in 9.0 mi Calm Calm - N/A   Clear
3:51 AM 52.0 °F 50.0 °F 93% 30.20 in 10.0 mi Calm Calm - N/A   Overcast
4:51 AM 53.6 °F 51.8 °F 94% 30.20 in 10.0 mi Calm Calm - N/A   Overcast
5:51 AM 54.0 °F 52.0 °F 93% 30.19 in 10.0 mi Calm Calm - N/A   Overcast
6:51 AM 55.0 °F 52.0 °F 89% 30.20 in 10.0 mi Calm Calm - N/A   Overcast
7:51 AM 55.4 °F 53.6 °F 94% 30.22 in 10.0 mi Calm Calm - N/A   Mostly Cloudy
8:51 AM 59.0 °F 55.9 °F 90% 30.23 in 10.0 mi WNW 3.5 mph - N/A   Overcast
9:51 AM 64.9 °F 53.1 °F 65% 30.23 in 10.0 mi SSE 5.8 mph - N/A   Mostly Cloudy
10:51 AM 68.0 °F 55.0 °F 63% 30.23 in 10.0 mi SE 8.1 mph - N/A   Mostly Cloudy
11:51 AM 69.1 °F 55.0 °F 61% 30.23 in 10.0 mi SE 10.4 mph - N/A   Overcast
12:51 PM 70.0 °F 55.0 °F 59% 30.22 in 10.0 mi SE 11.5 mph 18.4 mph N/A   Scattered Clouds
1:51 PM 72.0 °F 57.0 °F 59% 30.21 in 10.0 mi SE 13.8 mph 19.6 mph N/A   Mostly Cloudy
2:51 PM 72.0 °F 57.0 °F 59% 30.19 in 10.0 mi SSE 9.2 mph 17.3 mph N/A   Mostly Cloudy
3:51 PM 70.0 °F 55.0 °F 59% 30.19 in 10.0 mi SE 11.5 mph 19.6 mph N/A   Overcast
4:51 PM 71.1 °F 55.9 °F 59% 30.19 in 10.0 mi SE 11.5 mph 17.3 mph N/A   Mostly Cloudy
5:51 PM 69.8 °F 55.4 °F 60% 30.19 in 10.0 mi SSE 11.5 mph - N/A   Overcast
6:51 PM 66.9 °F 55.0 °F 66% 30.19 in 10.0 mi SE 9.2 mph 16.1 mph N/A   Mostly Cloudy
7:51 PM 64.9 °F 54.0 °F 68% 30.18 in 10.0 mi SSE 8.1 mph - N/A   Clear
8:51 PM 64.0 °F 54.0 °F 70% 30.19 in 10.0 mi SE 4.6 mph - N/A   Overcast
9:51 PM 64.0 °F 55.0 °F 73% 30.20 in 10.0 mi South 3.5 mph - N/A   Mostly Cloudy
10:51 PM 63.0 °F 55.0 °F 75% 30.19 in 10.0 mi Variable 6.9 mph - N/A   Clear
11:51 PM 63.0 °F 55.0 °F 75% 30.19 in 10.0 mi South 4.6 mph - N/A   Clear